Hourly Weather Tamra

Today, 2 October, Friday

Time Temperature Precipitation Wind Pressure Humidity
00:00 +22°C° 0 mm 1 mps 748 mmHg 83%
01:00 +22°C° 0 mm 1 mps 748 mmHg 83%
02:00 +20°C° 0 mm 0 mps 748 mmHg 83%
03:00 +20°C° 0 mm 0 mps 748 mmHg 84%
04:00 +20°C° 0 mm 0 mps 748 mmHg 84%
05:00 +21°C° 0 mm 1 mps 749 mmHg 84%
06:00 +23°C° 0 mm 1 mps 749 mmHg 76%
07:00 +25°C° 0 mm 1 mps 749 mmHg 69%
08:00 +27°C° 0 mm 1 mps 749 mmHg 62%
09:00 +28°C° 0 mm 2 mps 749 mmHg 55%
10:00 +30°C° 0 mm 2 mps 749 mmHg 48%
11:00 +31°C° 0 mm 3 mps 750 mmHg 42%
12:00 +32°C° 0 mm 4 mps 749 mmHg 42%
13:00 +32°C° 0 mm 4 mps 749 mmHg 43%
14:00 +32°C° 0 mm 5 mps 749 mmHg 44%
15:00 +30°C° 0 mm 5 mps 749 mmHg 48%
16:00 +29°C° 0 mm 5 mps 749 mmHg 52%
17:00 +27°C° 0 mm 5 mps 749 mmHg 57%
18:00 +26°C° 0 mm 4 mps 749 mmHg 62%
19:00 +25°C° 0 mm 4 mps 749 mmHg 67%
20:00 +22°C° 0 mm 3 mps 750 mmHg 72%
21:00 +22°C° 0 mm 3 mps 750 mmHg 74%
22:00 +23°C° 0 mm 2 mps 750 mmHg 76%
23:00 +21°C° 0 mm 2 mps 750 mmHg 77%

Tomorrow, 3 October, Saturday

Time Temperature Precipitation Wind Pressure Humidity
00:00 +21°C° 0 mm 2 mps 750 mmHg 79%
01:00 +21°C° 0 mm 2 mps 750 mmHg 80%
02:00 +21°C° 0 mm 1 mps 749 mmHg 82%
03:00 +21°C° 0 mm 1 mps 750 mmHg 82%
04:00 +21°C° 0 mm 1 mps 750 mmHg 83%
05:00 +21°C° 0 mm 1 mps 750 mmHg 83%
06:00 +23°C° 0 mm 1 mps 750 mmHg 75%
07:00 +25°C° 0 mm 1 mps 750 mmHg 67%
08:00 +27°C° 0 mm 1 mps 751 mmHg 59%
09:00 +28°C° 0 mm 2 mps 750 mmHg 54%
10:00 +30°C° 0 mm 2 mps 750 mmHg 48%
11:00 +31°C° 0 mm 3 mps 750 mmHg 43%
12:00 +32°C° 0 mm 4 mps 750 mmHg 44%
13:00 +32°C° 0 mm 5 mps 750 mmHg 45%
14:00 +32°C° 0 mm 6 mps 749 mmHg 45%
15:00 +30°C° 0 mm 5 mps 749 mmHg 50%
16:00 +28°C° 0 mm 5 mps 749 mmHg 54%
17:00 +27°C° 0 mm 5 mps 749 mmHg 58%
18:00 +26°C° 0 mm 4 mps 749 mmHg 65%
19:00 +24°C° 0 mm 3 mps 749 mmHg 72%
20:00 +22°C° 0 mm 3 mps 750 mmHg 79%
21:00 +23°C° 0 mm 2 mps 750 mmHg 80%
22:00 +23°C° 0 mm 2 mps 750 mmHg 82%
23:00 +23°C° 0 mm 2 mps 750 mmHg 83%

Day after tomorrow, 4 October, Sunday

Time Temperature Precipitation Wind Pressure Humidity
00:00 +23°C° 0 mm 2 mps 750 mmHg 83%
01:00 +23°C° 0 mm 2 mps 750 mmHg 83%
02:00 +21°C° 0 mm 2 mps 749 mmHg 83%
03:00 +21°C° 0 mm 2 mps 750 mmHg 83%
04:00 +22°C° 0 mm 1 mps 750 mmHg 83%
05:00 +22°C° 0 mm 1 mps 750 mmHg 84%
06:00 +24°C° 0 mm 1 mps 750 mmHg 76%
07:00 +25°C° 0 mm 1 mps 750 mmHg 69%
08:00 +27°C° 0 mm 1 mps 750 mmHg 62%
09:00 +28°C° 0 mm 2 mps 750 mmHg 56%
10:00 +30°C° 0 mm 3 mps 750 mmHg 50%
11:00 +31°C° 0 mm 3 mps 750 mmHg 45%
12:00 +32°C° 0 mm 4 mps 749 mmHg 45%
13:00 +32°C° 0 mm 5 mps 749 mmHg 46%
14:00 +32°C° 0 mm 6 mps 749 mmHg 46%
15:00 +30°C° 0 mm 5 mps 749 mmHg 51%
16:00 +28°C° 0 mm 5 mps 749 mmHg 56%
17:00 +27°C° 0 mm 4 mps 748 mmHg 61%
18:00 +26°C° 0 mm 4 mps 749 mmHg 66%
19:00 +25°C° 0 mm 3 mps 749 mmHg 71%
20:00 +23°C° 0 mm 2 mps 749 mmHg 77%
21:00 +23°C° 0 mm 2 mps 749 mmHg 78%
22:00 +23°C° 0 mm 2 mps 749 mmHg 80%
23:00 +23°C° 0 mm 1 mps 749 mmHg 81%

5 October, Monday

Time Temperature Precipitation Wind Pressure Humidity
00:00 +22°C° 0 mm 1 mps 749 mmHg 82%
01:00 +22°C° 0 mm 1 mps 749 mmHg 82%
02:00 +20°C° 0 mm 0 mps 749 mmHg 83%
03:00 +20°C° 0 mm 0 mps 749 mmHg 84%
04:00 +21°C° 0 mm 1 mps 749 mmHg 84%
05:00 +21°C° 0 mm 1 mps 749 mmHg 85%
06:00 +23°C° 0 mm 1 mps 749 mmHg 77%
07:00 +25°C° 0 mm 1 mps 749 mmHg 70%
08:00 +27°C° 0 mm 1 mps 749 mmHg 63%
09:00 +28°C° 0 mm 2 mps 749 mmHg 56%
10:00 +30°C° 0 mm 2 mps 749 mmHg 49%
11:00 +33°C° 0 mm 3 mps 749 mmHg 43%
12:00 +33°C° 0 mm 4 mps 749 mmHg 44%
13:00 +33°C° 0 mm 4 mps 748 mmHg 45%
14:00 +33°C° 0 mm 5 mps 748 mmHg 46%
15:00 +30°C° 0 mm 5 mps 748 mmHg 49%
16:00 +29°C° 0 mm 4 mps 747 mmHg 52%
17:00 +28°C° 0 mm 4 mps 747 mmHg 54%
18:00 +26°C° 0 mm 3 mps 747 mmHg 59%
19:00 +25°C° 0 mm 3 mps 748 mmHg 63%
20:00 +24°C° 0 mm 3 mps 748 mmHg 68%
21:00 +24°C° 0 mm 2 mps 748 mmHg 69%
22:00 +23°C° 0 mm 2 mps 748 mmHg 70%
23:00 +23°C° 0 mm 2 mps 748 mmHg 71%

6 October, Tuesday

Time Temperature Precipitation Wind Pressure Humidity
00:00 +23°C° 0 mm 2 mps 747 mmHg 73%
01:00 +21°C° 0 mm 2 mps 747 mmHg 75%
02:00 +22°C° 0 mm 1 mps 747 mmHg 77%
03:00 +22°C° 0 mm 1 mps 747 mmHg 78%
04:00 +22°C° 0 mm 1 mps 747 mmHg 78%
05:00 +21°C° 0 mm 1 mps 747 mmHg 79%
06:00 +23°C° 0 mm 1 mps 747 mmHg 70%
07:00 +25°C° 0 mm 1 mps 747 mmHg 62%
08:00 +27°C° 0 mm 1 mps 748 mmHg 53%
09:00 +29°C° 0 mm 1 mps 747 mmHg 48%
10:00 +31°C° 0 mm 2 mps 747 mmHg 42%
11:00 +34°C° 0 mm 2 mps 747 mmHg 36%
12:00 +34°C° 0 mm 3 mps 747 mmHg 38%
13:00 +34°C° 0 mm 4 mps 746 mmHg 39%
14:00 +33°C° 0 mm 4 mps 746 mmHg 40%
15:00 +32°C° 0 mm 4 mps 746 mmHg 44%
16:00 +29°C° 0 mm 4 mps 746 mmHg 49%
17:00 +28°C° 0 mm 4 mps 745 mmHg 53%
18:00 +26°C° 0 mm 3 mps 746 mmHg 57%
19:00 +25°C° 0 mm 3 mps 746 mmHg 62%
20:00 +24°C° 0 mm 2 mps 746 mmHg 66%
21:00 +24°C° 0 mm 2 mps 746 mmHg 65%
22:00 +23°C° 0 mm 2 mps 746 mmHg 64%
23:00 +23°C° 0 mm 2 mps 746 mmHg 63%

7 October, Wednesday

Time Temperature Precipitation Wind Pressure Humidity
00:00 +22°C° 0 mm 1 mps 746 mmHg 65%
01:00 +22°C° 0 mm 1 mps 746 mmHg 68%
02:00 +20°C° 0 mm 0 mps 746 mmHg 70%
03:00 +21°C° 0 mm 1 mps 746 mmHg 69%
04:00 +21°C° 0 mm 1 mps 746 mmHg 69%
05:00 +21°C° 0 mm 1 mps 747 mmHg 68%
06:00 +23°C° 0 mm 1 mps 747 mmHg 61%
07:00 +25°C° 0 mm 1 mps 747 mmHg 55%
08:00 +28°C° 0 mm 1 mps 748 mmHg 48%
09:00 +29°C° 0 mm 2 mps 748 mmHg 43%
10:00 +31°C° 0 mm 2 mps 748 mmHg 38%
11:00 +34°C° 0 mm 3 mps 748 mmHg 34%
12:00 +34°C° 0 mm 4 mps 747 mmHg 34%
13:00 +33°C° 0 mm 4 mps 747 mmHg 35%
14:00 +33°C° 0 mm 5 mps 747 mmHg 36%
15:00 +32°C° 0 mm 4 mps 747 mmHg 42%
16:00 +29°C° 0 mm 4 mps 747 mmHg 48%
17:00 +27°C° 0 mm 4 mps 747 mmHg 55%
18:00 +26°C° 0 mm 3 mps 747 mmHg 60%
19:00 +25°C° 0 mm 3 mps 748 mmHg 66%
20:00 +23°C° 0 mm 2 mps 748 mmHg 72%
21:00 +23°C° 0 mm 2 mps 748 mmHg 71%
22:00 +23°C° 0 mm 1 mps 748 mmHg 70%
23:00 +22°C° 0 mm 1 mps 748 mmHg 69%
Show more

We Need Your Consent

Meteoprog and our Service Providers may store and access personal data such as cookies, device identifiers or other similar technologies on your device and process such data to personalise content and ads, as well as provide social media features and to analyse the traffic.

  • Store and/or access information on your device

    Cookies, device identifiers or other information can be stored or accessed on your device for the purposes indicated above.

  • Personalised ads and content, ad and content measurement, audience insights, and products development

    Ads and content can be personalised based on a profile. More data can be added to better personalise ads and content. Ad and content performance can be measured. Insights about the audience who saw the ads and content can be derived. Such data can be used to develop or improve user’s experience, systems and software.

By clicking ‘I Agree’ you will allow the use of indicated cookies, device identifiers, web beacons or other similar technologies. Your settings can be changed in the browser on your device.

For certain purposes, legitimate interests may be relied on, rather than consent. You can read more about this in our Privacy and Cookie Policy.